User: anonymous   Login
Location: Unspecified
(0.0000°N, 0.0000°E)
Time: 19:24:25
(UTC+00:00)
Language:

STARLINK-3932 - Orbit

View from above orbital plane
View from above orbital plane
View from above satellite
View from above satellite

Ground track
Ground track

The orbit is defined by the following mean orbital elements,

1 52576U          26145.38484166 +.00000000 +00000-0 +52521-4 0 00005
2 52576  53.2130 134.8201 0001094  70.4746 289.6364 15.08835520    07
Epoch (UTC): 25 May 2026 09:14:10
Eccentricity: 0.0001094
inclination: 53.2130°
perigee height: 539 km
apogee height: 541 km
right ascension of ascending node: 134.8201°
argument of perigee: 70.4746°
revolutions per day: 15.08835520
mean anomaly at epoch: 289.6364°

The dashed part of the orbit path shows where the satellite is in the earth's shadow,  

DLR